This is the latest recevied weather packets stored in our database for station/object GW4003. If no packets are shown the sender has not sent any weather packets the latest 10 day(s).
| Time | Temp. | Humidity | Pressure | Rain* | Wind** | Luminosity | Snow |
|---|---|---|---|---|---|---|---|
| 1788291483 | 28.89° C | 29% | 1019.5 hPa | 0 mm | - | - | - |
| 1788291179 | 28.89° C | 30% | 1019.5 hPa | 0 mm | - | - | - |
| 1788290875 | 28.33° C | 30% | 1019.6 hPa | 0 mm | - | - | - |
| 1788290572 | 28.89° C | 29% | 1019.6 hPa | 0 mm | - | - | - |
| 1788290268 | 28.33° C | 31% | 1019.7 hPa | 0 mm | - | - | - |
| 1788289964 | 28.33° C | 29% | 1019.8 hPa | 0 mm | - | - | - |
| 1788289663 | 28.33° C | 31% | 1019.8 hPa | 0 mm | - | - | - |
| 1788289359 | 28.33° C | 31% | 1019.9 hPa | 0 mm | - | - | - |
| 1788289055 | 28.33° C | 32% | 1019.9 hPa | 0 mm | - | - | - |
| 1788288752 | 28.33° C | 33% | 1020 hPa | 0 mm | - | - | - |
| 1788288448 | 27.78° C | 33% | 1020.2 hPa | 0 mm | - | - | - |
| 1788288143 | 27.78° C | 34% | 1020.2 hPa | 0 mm | - | - | - |
| 1788287839 | 27.78° C | 33% | 1020.3 hPa | 0 mm | - | - | - |
| 1788287536 | 27.22° C | 33% | 1020.3 hPa | 0 mm | - | - | - |
| 1788287232 | 27.22° C | 36% | 1020.5 hPa | 0 mm | - | - | - |
| 1788286928 | 26.67° C | 35% | 1020.6 hPa | 0 mm | - | - | - |
| 1788286624 | 27.22° C | 35% | 1020.7 hPa | 0 mm | - | - | - |
| 1788286321 | 27.22° C | 35% | 1020.7 hPa | 0 mm | - | - | - |
| 1788286017 | 26.67° C | 36% | 1020.8 hPa | 0 mm | - | - | - |
| 1788285713 | 26.67° C | 38% | 1020.9 hPa | 0 mm | - | - | - |
| 1788285409 | 26.67° C | 38% | 1021 hPa | 0 mm | - | - | - |
| 1788285105 | 26.11° C | 39% | 1021 hPa | 0 mm | - | - | - |
| 1788284802 | 26.11° C | 39% | 1020.9 hPa | 0 mm | - | - | - |
| 1788284498 | 26.11° C | 40% | 1021 hPa | 0 mm | - | - | - |
| 1788284194 | 25.56° C | 41% | 1021.1 hPa | 0 mm | - | - | - |
* Rain latest hour (hover to see other rain measurements)
** Current wind speed in m/s (hover to see current wind gust speed)